Dumas, TX

2:18 PM CDT on August 18, 2017 (GMT -0500)
Moore County

Weather History for KDUX - June, 2014

Change the Weather History Date:

Wednesday, June 4, 2014

  Actual Average (KDHT) Record (KDHT)
Temperature  
Mean Temperature 80 °F -  
Max Temperature 91 °F 82 °F 99 °F (2006)
Min Temperature 69 °F 54 °F 42 °F (1970)
Cooling Degree Days 15    
Growing Degree Days 30 (Base 50)    
Moisture  
Dew Point 58 °F    
Average Humidity 50    
Maximum Humidity 67    
Minimum Humidity 31    
Precipitation  
Precipitation 0.00 in - - ()
Sea Level Pressure  
Sea Level Pressure 29.84 in    
Wind  
Wind Speed 16 mph (SSW)    
Max Wind Speed 37 mph    
Max Gust Speed 45 mph    
Visibility 10 miles    
Events      
Averages and records for this station are not official NWS values.
T = Trace of Precipitation, MM = Missing Value Source: NWS Daily Summary

Daily Weather History Graph

Daily Weather History Graph

Search for Another Location

Airport or City:

Trip Planner

Search our weather history database for the weather conditions in past years. The results will help you decide how hot, cold, wet, or windy it might be!

Date:

Astronomy

Jun. 04, 2014 Rise Set
Actual Time 6:32 AM CDT 9:00 PM CDT
Civil Twilight 6:02 AM CDT 9:30 PM CDT
Nautical Twilight 5:25 AM CDT 10:07 PM CDT
Astronomical Twilight 4:45 AM CDT 10:48 PM CDT
Moon 12:44 PM CDT (6/4) 1:08 AM CDT (6/4)
Length of Visible Light 15h 28m
Length of Day
14h 28m
Waxing Crescent, 39% of the Moon is Illuminated
Jun 4
Waxing Crescent
Jun 5
First Quarter
Jun 12
Full
Jun 19
Last Quarter
Jun 27
New

Hourly Weather History & Observations

Time (CDT) Temp. Heat Index Dew Point Humidity Pressure Visibility Wind Dir Wind Speed Gust Speed Precip Events Conditions
12:15 AM 84.4 °F - 50.5 °F 31% 29.82 in 7.0 mi South 24.2 mph 31.1 mph N/A   Scattered Clouds
12:35 AM 81.5 °F 80.9 °F 54.5 °F 39% 29.82 in 10.0 mi South 24.2 mph 34.5 mph N/A   Scattered Clouds
12:55 AM 81.7 °F 81.2 °F 54.9 °F 40% 29.84 in 7.0 mi SSW 27.6 mph 39.1 mph N/A   Scattered Clouds
1:15 AM 80.6 °F 80.4 °F 55.0 °F 41% 29.78 in 10.0 mi South 36.8 mph 44.9 mph N/A   Scattered Clouds
1:35 AM 79.0 °F - 55.6 °F 44% 29.82 in 10.0 mi SSW 31.1 mph 39.1 mph N/A   Clear
1:55 AM 77.9 °F - 55.9 °F 47% 29.82 in 10.0 mi SSW 26.5 mph 39.1 mph N/A   Clear
2:15 AM 76.6 °F - 56.5 °F 50% 29.82 in 10.0 mi SSW 31.1 mph 39.1 mph N/A   Clear
2:35 AM 75.6 °F - 56.7 °F 52% 29.82 in 10.0 mi SSW 26.5 mph - N/A   Clear
2:55 AM 74.7 °F - 57.2 °F 54% 29.83 in 10.0 mi SSW 24.2 mph 33.4 mph N/A   Clear
3:15 AM 73.8 °F - 57.2 °F 56% 29.84 in 10.0 mi SSW 18.4 mph 27.6 mph N/A   Clear
3:35 AM 73.4 °F - 57.4 °F 57% 29.84 in 10.0 mi SW 18.4 mph 23.0 mph N/A   Clear
4:15 AM 72.3 °F - 57.6 °F 60% 29.84 in 10.0 mi SW 16.1 mph - N/A   Clear
4:35 AM 71.6 °F - 57.6 °F 61% 29.86 in 10.0 mi WSW 12.7 mph - N/A   Clear
4:55 AM 70.7 °F - 57.6 °F 63% 29.85 in 10.0 mi SW 10.4 mph - N/A   Clear
5:15 AM 70.0 °F - 57.7 °F 65% 29.84 in 10.0 mi SW 9.2 mph - N/A   Clear
5:35 AM 69.8 °F - 57.9 °F 66% 29.83 in 10.0 mi SSW 11.5 mph - N/A   Clear
5:55 AM 70.2 °F - 58.1 °F 65% 29.83 in 10.0 mi SSW 11.5 mph - N/A   Clear
6:15 AM 70.0 °F - 58.1 °F 66% 29.83 in 10.0 mi SSW 10.4 mph - N/A   Clear
6:35 AM 70.0 °F - 58.1 °F 66% 29.83 in 10.0 mi SSW 10.4 mph - N/A   Clear
6:55 AM 69.8 °F - 58.1 °F 66% 29.82 in 10.0 mi SSW 10.4 mph - N/A   Clear
7:15 AM 69.4 °F - 57.9 °F 67% 29.83 in 10.0 mi SSW 12.7 mph - N/A   Clear
7:35 AM 69.8 °F - 58.1 °F 66% 29.84 in 10.0 mi SW 11.5 mph - N/A   Clear
7:55 AM 70.2 °F - 58.1 °F 65% 29.84 in 10.0 mi SW 10.4 mph - N/A   Clear
8:15 AM 71.2 °F - 58.3 °F 64% 29.85 in 10.0 mi WSW 9.2 mph - N/A   Clear
8:35 AM 72.7 °F - 58.6 °F 61% 29.85 in 10.0 mi WSW 10.4 mph - N/A   Clear
8:55 AM 74.7 °F - 59.2 °F 58% 29.86 in 10.0 mi WSW 11.5 mph - N/A   Clear
9:15 AM 76.3 °F - 59.2 °F 55% 29.86 in 10.0 mi West 13.8 mph - N/A   Clear
9:35 AM 78.3 °F - 59.0 °F 51% 29.86 in 10.0 mi West 15.0 mph - N/A   Clear
9:55 AM 79.7 °F - 57.6 °F 47% 29.87 in 10.0 mi WNW 9.2 mph 17.3 mph N/A   Clear
10:15 AM 80.8 °F 81.0 °F 57.4 °F 45% 29.88 in 10.0 mi WNW 13.8 mph 17.3 mph N/A   Clear
10:35 AM 80.8 °F 81.0 °F 57.4 °F 45% 29.88 in 10.0 mi NW 12.7 mph - N/A   Clear
10:55 AM 80.8 °F 81.0 °F 57.4 °F 45% 29.87 in 10.0 mi North 16.1 mph 20.7 mph N/A   Clear
11:15 AM 80.1 °F 80.7 °F 59.0 °F 48% 29.88 in 10.0 mi North 16.1 mph 21.9 mph N/A   Clear
11:35 AM 79.0 °F - 59.4 °F 51% 29.89 in 10.0 mi North 13.8 mph 21.9 mph N/A   Clear
11:55 AM 79.3 °F - 59.7 °F 51% 29.90 in 10.0 mi North 13.8 mph 20.7 mph N/A   Clear
12:15 PM 79.7 °F - 60.1 °F 51% 29.90 in 10.0 mi NNE 11.5 mph 17.3 mph N/A   Clear
12:35 PM 81.5 °F 82.0 °F 60.1 °F 48% 29.90 in 10.0 mi Calm Calm - N/A   Clear
12:55 PM 81.7 °F 82.2 °F 60.1 °F 48% 29.90 in 10.0 mi NNE 9.2 mph - N/A   Clear
1:15 PM 83.5 °F 83.4 °F 59.7 °F 44% 29.90 in 10.0 mi NE 10.4 mph - N/A   Clear
1:35 PM 83.7 °F 83.6 °F 59.5 °F 44% 29.90 in 10.0 mi NE 3.5 mph 17.3 mph N/A   Clear
1:55 PM 84.9 °F 84.6 °F 59.7 °F 42% 29.89 in 10.0 mi ENE 6.9 mph - N/A   Clear
2:15 PM 84.2 °F 84.0 °F 59.2 °F 43% 29.89 in 10.0 mi NE 9.2 mph 18.4 mph N/A   Clear
2:35 PM 85.1 °F 84.4 °F 58.3 °F 40% 29.88 in 10.0 mi ENE 8.1 mph - N/A   Clear
2:55 PM 86.4 °F 85.9 °F 59.4 °F 40% 29.88 in 10.0 mi NNE 9.2 mph 16.1 mph N/A   Clear
3:15 PM 86.7 °F 85.9 °F 58.3 °F 38% 29.87 in 10.0 mi ENE 10.4 mph - N/A   Clear
3:35 PM 87.3 °F 86.3 °F 57.9 °F 37% 29.87 in 10.0 mi ESE 3.5 mph - N/A   Clear
4:15 PM 89.2 °F 88.7 °F 59.5 °F 37% 29.85 in 10.0 mi ENE 3.5 mph - N/A   Clear
4:35 PM 89.6 °F 88.6 °F 58.5 °F 35% 29.84 in 10.0 mi East 6.9 mph - N/A   Clear
4:55 PM 90.7 °F 90.1 °F 59.4 °F 35% 29.83 in 10.0 mi ENE 6.9 mph - N/A   Clear
5:15 PM 90.3 °F 89.6 °F 58.8 °F 35% 29.83 in 10.0 mi Calm Calm - N/A   Clear
5:35 PM 91.2 °F 90.5 °F 59.4 °F 34% 29.83 in 10.0 mi East 3.5 mph - N/A   Clear
5:55 PM 91.4 °F 90.7 °F 59.2 °F 34% 29.82 in 10.0 mi ENE 8.1 mph 16.1 mph N/A   Clear
6:15 PM 90.9 °F 90.3 °F 59.5 °F 35% 29.81 in 10.0 mi NE 12.7 mph 16.1 mph N/A   Clear
6:35 PM 90.9 °F 90.3 °F 59.5 °F 35% 29.81 in 10.0 mi ENE 9.2 mph - N/A   Clear
9:35 PM - - - N/A% 29.80 in 10.0 mi Calm Calm - N/A   Unknown
9:55 PM - - - N/A% 29.79 in 10.0 mi ENE 8.1 mph - N/A   Clear
10:15 PM 75.6 °F - 60.8 °F 60% 29.79 in 10.0 mi Calm Calm - N/A   Clear
10:35 PM 76.8 °F - 61.2 °F 58% 29.79 in 10.0 mi Calm Calm - N/A   Clear
10:55 PM 77.0 °F - 61.7 °F 59% 29.79 in 10.0 mi Calm Calm - N/A   Clear
11:15 PM 76.8 °F - 61.7 °F 59% 29.78 in 10.0 mi Calm Calm - N/A   Clear
11:35 PM 75.7 °F - 61.9 °F 62% 29.77 in 10.0 mi ESE 10.4 mph - N/A   Clear
11:55 PM 75.0 °F - 61.9 °F 64% 29.77 in 10.0 mi Calm Calm - N/A   Clear